Volver al catálogo

STARLINK-5958

ActivoComunicacionesVLEO
NORAD 56921·PAYLOAD·🇺🇸 United States

Lanzado Jun 12, 2023 desde Cape Canaveral Space Force Station

Loading…

Próximos Pases (próximas 24 horas)

TLE

ActualizadoSource: CelesTrak SupGP

Época: Sep 14, 2026, 22:28 UTC

1 56921C 23083AX  26257.93659722  .00052032  00000+0  18846-2 0  2571
2 56921  43.0010  81.6194 0001419 268.1086 119.2012 15.27552783    10

Sigue STARLINK-5958 en tiempo real con AllMySat

Download on the App Store